This is the latest recevied weather packets stored in our database for station/object LX0APE-4. If no packets are shown the sender has not sent any weather packets the latest 10 day(s).
| Time | Temp. | Humidity | Pressure | Rain* | Wind** | Luminosity | Snow |
|---|---|---|---|---|---|---|---|
| 1777051638 | 25.56° C | 14% | 5016.4 hPa | 0 mm | - | - | - |
| 1777051338 | 25.56° C | 14% | 5016.3 hPa | 0 mm | - | - | - |
| 1777051038 | 26.11° C | 14% | 5016.2 hPa | 0 mm | - | - | - |
| 1777050738 | 26.67° C | 14% | 5016.3 hPa | 0 mm | - | - | - |
| 1777050438 | 26.67° C | 14% | 5016.4 hPa | 0 mm | - | - | - |
| 1777050138 | 27.22° C | 14% | 5016.4 hPa | 0 mm | - | - | - |
| 1777049838 | 27.22° C | 14% | 5016.3 hPa | 0 mm | - | - | - |
| 1777049538 | 27.22° C | 13% | 5016.4 hPa | 0 mm | - | - | - |
| 1777049238 | 27.22° C | 12% | 5016.5 hPa | 0 mm | - | - | - |
| 1777048938 | 27.22° C | 12% | 5016.6 hPa | 0 mm | - | - | - |
| 1777048638 | 27.22° C | 12% | 5016.5 hPa | 0 mm | - | - | - |
| 1777048338 | 28.33° C | 13% | 5016.6 hPa | 0 mm | - | - | - |
| 1777048038 | 28.89° C | 11% | 5016.7 hPa | 0 mm | - | - | - |
| 1777047771 | 28.89° C | 11% | 5016.4 hPa | 0 mm | - | - | - |
| 1777047739 | 28.89° C | 11% | 5016.4 hPa | 0 mm | - | - | - |
| 1777047438 | 28.89° C | 11% | 5016.5 hPa | 0 mm | - | - | - |
| 1777047138 | 29.44° C | 13% | 5016.5 hPa | 0 mm | - | - | - |
| 1777046842 | 29.44° C | 11% | 5016.6 hPa | 0 mm | - | - | - |
| 1777046838 | 29.44° C | 11% | 5016.6 hPa | 0 mm | - | - | - |
| 1777046538 | 28.89° C | 11% | 5016.6 hPa | 0 mm | - | - | - |
| 1777046238 | 28.89° C | 11% | 5016.7 hPa | 0 mm | - | - | - |
| 1777045942 | 29.44° C | 11% | 5016.7 hPa | 0 mm | - | - | - |
| 1777045938 | 29.44° C | 11% | 5016.7 hPa | 0 mm | - | - | - |
| 1777045638 | 29.44° C | 11% | 5016.6 hPa | 0 mm | - | - | - |
| 1777045338 | 28.89° C | 13% | 5016.7 hPa | 0 mm | - | - | - |
* Rain latest hour (hover to see other rain measurements)
** Current wind speed in m/s (hover to see current wind gust speed)